Wind_Speed
32 32 31 30 30 28 28 26 26 26 26 26 26 26 26 26 26 26 27 28 28 29 29 29 30 30 31 31 31 31 31 31 32 33 33 34 35 35 35 36 36 36 36
34 33 32 31 31 30 30 29 27 27 27 27 27 27 27 27 28 28 28 29 30 30 30 30 30 31 31 31 31 32 32 33 33 34 34 35 36 36 37 37 37 38 39
35 34 34 33 33 32 31 30 29 28 28 28 28 28 28 29 29 29 29 30 30 30 30 31 31 31 31 32 32 33 33 34 34 35 36 36 37 38 38 39 39 41 41
36 36 35 35 34 34 33 32 31 30 29 29 29 29 29 29 30 30 30 30 31 31 31 31 32 32 32 33 34 34 35 35 35 36 37 37 38 39 40 40 41 41 41
38 37 37 36 36 35 34 33 32 32 31 30 30 30 30 30 31 31 31 31 32 32 32 32 33 33 34 34 35 36 36 36 37 37 38 39 39 40 41 42 42 42 42
38 38 37 36 36 36 35 34 34 33 32 31 31 31 31 31 32 32 32 32 33 33 33 33 34 34 35 36 36 37 37 37 38 38 39 40 41 42 42 43 43 43 44
40 39 38 38 38 37 37 36 35 34 33 32 32 32 32 32 33 33 33 33 34 34 34 35 35 36 36 37 37 38 38 38 39 40 41 41 42 44 44 44 44 45 45
41 40 40 38 39 38 38 37 35 35 34 34 34 34 33 33 34 34 34 34 34 35 36 36 36 37 37 38 38 39 39 39 40 41 42 43 44 45 45 45 46 46 47
41 41 40 39 38 38 37 37 36 35 35 35 35 35 35 34 35 35 35 35 35 36 36 36 37 38 38 38 38 39 40 40 42 43 43 44 45 46 46 46 47 48 48
42 42 42 41 39 38 37 37 36 36 36 35 35 35 36 36 36 36 36 36 36 36 36 37 38 38 38 39 39 39 40 41 42 43 44 45 46 46 47 47 48 48 48
42 42 42 42 41 39 38 37 37 37 36 36 36 36 36 37 37 36 36 36 36 37 37 38 38 39 39 40 40 40 41 42 43 44 45 46 47 47 48 48 48 48 49
43 41 41 41 41 40 39 38 37 37 37 37 37 37 37 37 36 37 37 37 37 37 37 38 38 39 40 40 40 41 42 43 44 45 46 47 47 48 49 49 49 49 51
43 42 41 40 40 39 39 39 38 38 37 38 38 38 38 37 37 38 37 37 38 38 38 38 39 40 41 41 41 42 43 43 44 46 47 48 48 48 49 49 49 50 51
44 43 43 42 41 40 39 38 38 38 38 38 38 39 40 39 37 37 37 38 38 38 38 39 40 40 41 41 43 43 44 44 45 46 47 48 47 48 49 49 49 50 50
44 43 43 42 41 40 40 38 39 39 40 40 39 39 39 40 38 38 38 38 38 39 39 40 40 41 42 42 43 44 45 45 46 47 47 47 47 47 48 48 49 49 49
43 43 42 42 41 41 40 40 38 38 40 40 40 39 39 39 38 38 39 39 40 40 40 41 41 42 42 43 44 45 45 45 45 46 46 47 47 47 47 47 47 47 46
44 42 41 41 41 41 41 42 41 40 39 39 39 39 39 38 38 39 39 39 40 41 41 41 41 42 43 44 44 45 45 45 45 45 46 46 46 46 47 46 45 45 44
45 43 41 41 41 41 42 42 41 40 40 39 38 38 38 38 38 39 39 39 40 40 40 40 41 42 43 44 44 44 44 45 45 46 46 46 46 46 45 44 44 43 42
44 44 42 41 41 41 40 40 40 40 40 40 39 37 37 38 38 38 39 39 39 40 40 41 42 42 43 43 42 43 44 45 45 46 45 45 45 45 44 43 43 42 41
43 43 43 41 41 41 41 40 40 39 39 39 39 39 38 37 37 37 37 38 38 39 40 40 41 40 40 41 41 42 43 44 44 44 44 44 44 43 43 42 42 41 40
41 41 41 41 41 40 40 40 40 39 39 38 38 38 37 36 36 36 36 36 37 38 39 39 39 38 39 40 41 42 42 43 43 43 43 43 42 42 41 41 41 40 38
39 39 40 40 39 39 39 39 40 39 39 38 37 37 36 35 35 35 36 36 36 37 38 38 37 38 39 40 40 42 42 42 42 42 41 40 40 40 40 39 38 37 36
39 39 40 40 40 40 40 40 39 38 37 37 37 36 36 35 35 35 35 36 36 37 37 37 37 38 39 40 41 42 42 41 41 40 40 39 39 39 38 37 35 34 34
39 39 39 39 39 39 38 38 39 38 37 36 36 36 36 36 36 35 35 35 36 36 36 36 37 38 39 40 42 41 41 40 39 39 40 39 37 37 35 33 32 32 32
38 38 38 39 38 39 39 38 38 37 37 37 36 36 36 36 36 35 36 35 35 35 34 35 36 37 39 41 41 40 39 39 38 38 38 36 35 34 31 29 30 30 29
37 37 37 36 36 36 37 37 36 36 36 36 36 36 35 35 35 36 36 36 35 34 34 35 37 38 40 40 39 39 38 37 37 36 35 34 32 30 27 27 28 28 27
Wind_Direction
245 246 247 249 252 255 256 259 262 266 269 271 273 276 279 280 283 285 288 290 290 291 291 293 294 294 295 295 296 297 297 298 297 297 297 298 298 298 299 298 297 296 295
245 247 248 249 252 254 257 260 262 265 268 271 273 275 278 281 283 285 287 289 290 290 290 291 292 294 294 295 295 296 297 297 297 297 297 298 298 298 298 298 297 297 296
246 247 249 250 252 254 257 259 262 265 269 271 272 274 278 281 283 284 286 288 289 289 290 290 291 293 294 295 295 296 296 297 296 297 298 298 298 297 298 298 298 297 296
246 247 248 251 253 255 257 259 262 265 269 271 272 274 278 280 282 284 285 286 287 288 289 290 290 291 293 294 294 295 296 296 296 297 297 298 298 298 298 298 298 297 296
245 248 249 250 252 254 256 259 262 265 268 270 272 274 278 280 282 283 284 286 287 287 288 289 289 290 291 293 294 295 295 296 296 297 297 298 298 299 299 299 299 297 296
245 246 248 249 252 254 256 258 261 264 267 269 271 274 277 280 283 284 285 285 286 287 287 288 289 290 291 292 294 294 295 295 296 297 298 298 299 299 300 300 299 298 297
246 247 248 249 252 254 256 258 260 263 266 269 271 273 276 279 282 283 283 284 286 287 287 289 290 290 291 293 294 294 295 295 296 297 298 299 300 300 300 299 299 299 299
246 248 249 250 253 255 256 257 260 263 266 269 271 274 275 277 280 282 283 285 286 287 288 289 290 291 292 293 293 294 295 296 296 297 298 299 300 300 300 299 299 299 299
247 248 251 251 253 254 256 258 260 263 266 269 271 274 274 276 279 281 282 283 285 287 288 289 290 292 293 293 294 294 295 296 297 297 298 299 300 300 300 299 299 300 300
247 249 251 252 254 254 256 258 260 262 265 268 271 274 275 278 280 281 281 283 285 287 288 289 290 292 293 294 295 295 296 297 298 298 299 300 300 300 300 300 300 300 300
246 248 250 252 254 255 256 259 261 264 266 268 271 274 275 278 279 280 281 282 284 286 288 290 291 292 293 295 296 296 297 298 298 299 300 301 301 300 300 300 300 300 300
244 246 248 250 253 255 257 259 262 265 267 269 271 273 275 278 279 279 280 281 283 286 287 289 291 292 294 295 296 298 298 299 299 300 301 301 301 301 301 301 301 301 302
244 246 249 251 253 255 258 259 262 264 266 268 271 273 274 275 278 280 280 281 283 286 287 289 291 293 294 295 297 298 299 299 300 301 301 302 302 302 302 302 302 302 303
246 247 249 251 253 255 257 259 262 264 265 268 270 272 272 274 278 279 280 281 282 285 288 290 291 293 294 296 297 299 299 300 301 301 302 302 302 303 303 303 303 303 304
246 247 249 250 252 255 256 258 261 263 265 268 270 272 273 273 276 279 280 281 282 285 287 289 291 292 294 296 298 299 300 301 301 302 303 303 303 304 304 304 305 305 305
245 247 249 252 253 255 257 258 261 264 266 267 268 271 273 274 276 278 280 282 284 286 288 289 290 292 294 296 298 299 301 301 302 302 303 304 305 305 306 306 306 305 305
245 247 248 250 254 256 258 260 262 264 265 266 268 269 271 273 276 279 281 283 284 286 288 289 290 293 295 297 298 300 301 301 302 304 305 306 306 306 306 306 306 307 307
245 246 247 250 254 256 258 260 262 263 264 266 268 269 272 275 277 280 282 284 285 286 288 290 292 294 295 298 299 300 302 302 303 304 305 306 307 307 307 307 308 308 307
247 247 248 250 253 254 256 259 262 264 265 266 268 270 272 276 278 280 282 284 286 287 288 291 293 295 296 298 300 301 302 303 304 305 306 306 307 307 307 308 308 308 308
249 250 249 250 252 254 255 258 261 264 264 266 267 269 273 277 278 280 282 284 286 288 289 291 294 296 297 299 300 302 303 304 305 306 307 307 307 307 307 307 308 308 309
248 251 251 250 251 253 255 258 261 262 263 265 267 269 272 275 278 280 282 285 288 290 291 293 295 296 297 299 301 303 304 305 306 306 307 307 307 308 308 308 308 309 309
248 250 250 249 251 253 255 257 259 262 263 265 267 269 271 273 277 280 283 286 289 291 292 294 295 296 298 300 301 304 305 305 305 306 307 308 308 308 309 309 309 310 311
248 250 250 249 251 253 254 256 260 263 265 266 266 268 271 273 277 281 284 287 289 292 294 294 295 297 299 300 303 305 306 306 307 307 308 309 309 309 310 311 311 312 312
249 250 249 249 251 253 254 256 260 263 265 266 267 269 270 273 277 280 284 287 289 291 292 294 296 298 300 303 305 305 305 306 307 308 308 309 309 310 311 312 313 314 315
250 249 248 249 252 254 256 258 260 263 264 264 266 268 270 273 277 280 283 286 288 290 291 295 297 299 302 303 304 305 305 306 307 307 308 308 309 310 311 312 313 314 316
249 249 249 250 252 254 256 258 259 262 262 263 265 268 271 274 277 280 282 284 286 288 291 294 298 300 302 303 303 304 305 305 307 308 308 309 309 310 312 313 314 315 317
Height
5816 5818 5820 5822 5823 5825 5826 5827 5827 5828 5828 5828 5828 5827 5826 5825 5824 5823 5822 5820 5819 5817 5815 5813 5811 5809 5807 5805 5802 5800 5797 5795 5792 5789 5786 5783 5780 5777 5774 5771 5767 5765 5762
5809 5812 5813 5815 5817 5818 5819 5820 5821 5822 5822 5822 5822 5821 5821 5820 5819 5817 5816 5814 5813 5811 5809 5807 5805 5803 5801 5799 5796 5794 5791 5788 5785 5782 5779 5776 5773 5770 5766 5763 5760 5757 5753
5802 5804 5806 5808 5810 5811 5812 5813 5814 5815 5815 5815 5815 5815 5814 5813 5812 5811 5810 5808 5806 5805 5803 5801 5799 5797 5794 5792 5790 5787 5784 5781 5778 5775 5772 5769 5765 5762 5758 5755 5751 5748 5744
5795 5797 5799 5801 5803 5804 5805 5807 5808 5809 5809 5809 5809 5808 5808 5807 5806 5804 5803 5801 5800 5798 5796 5794 5792 5790 5788 5785 5783 5780 5777 5774 5771 5768 5764 5761 5757 5754 5750 5746 5742 5738 5735
5787 5789 5792 5794 5795 5797 5798 5800 5801 5802 5802 5802 5802 5802 5801 5800 5799 5798 5796 5794 5793 5791 5789 5787 5785 5783 5780 5778 5775 5772 5769 5766 5763 5760 5756 5753 5749 5745 5741 5737 5733 5729 5725
5779 5781 5784 5786 5788 5789 5791 5793 5794 5795 5795 5795 5795 5795 5794 5793 5792 5790 5789 5787 5785 5783 5781 5779 5777 5775 5773 5770 5768 5765 5762 5758 5755 5752 5748 5744 5740 5736 5732 5728 5723 5719 5715
5771 5773 5775 5778 5780 5782 5784 5785 5786 5787 5787 5788 5788 5788 5787 5786 5784 5783 5781 5779 5777 5776 5774 5771 5769 5767 5765 5762 5759 5756 5753 5750 5746 5743 5739 5735 5731 5727 5722 5718 5713 5709 5704
5762 5765 5767 5769 5771 5774 5775 5777 5779 5779 5780 5780 5780 5780 5780 5779 5777 5775 5773 5771 5770 5768 5766 5763 5761 5759 5756 5754 5751 5748 5745 5741 5738 5734 5730 5726 5721 5717 5712 5707 5703 5698 5694
5754 5757 5759 5761 5763 5765 5768 5769 5771 5772 5772 5772 5772 5772 5771 5771 5770 5768 5766 5764 5762 5760 5758 5755 5753 5751 5748 5745 5743 5740 5736 5733 5729 5725 5720 5716 5711 5707 5702 5697 5692 5687 5682
5746 5749 5751 5753 5756 5758 5760 5761 5762 5763 5764 5764 5764 5763 5763 5762 5761 5760 5759 5756 5754 5752 5750 5747 5745 5742 5740 5737 5734 5731 5727 5723 5719 5715 5711 5706 5701 5696 5691 5686 5681 5675 5670
5738 5741 5743 5745 5748 5750 5751 5753 5754 5755 5755 5756 5756 5755 5755 5754 5752 5751 5751 5749 5746 5744 5742 5739 5736 5734 5731 5728 5725 5721 5718 5714 5710 5705 5701 5696 5691 5685 5680 5675 5669 5664 5658
5729 5732 5734 5737 5739 5741 5743 5744 5746 5747 5747 5748 5747 5747 5746 5745 5744 5743 5742 5740 5739 5736 5733 5730 5728 5725 5722 5719 5716 5712 5708 5704 5700 5696 5691 5685 5680 5674 5669 5663 5657 5652 5646
5720 5723 5725 5728 5730 5732 5734 5736 5737 5738 5738 5739 5739 5738 5737 5737 5736 5735 5733 5732 5730 5729 5726 5722 5719 5716 5713 5710 5707 5703 5698 5694 5690 5685 5680 5675 5669 5663 5658 5652 5646 5640 5633
5711 5714 5716 5719 5721 5723 5725 5727 5728 5729 5730 5730 5730 5729 5729 5728 5727 5726 5725 5723 5722 5721 5718 5715 5711 5707 5704 5701 5697 5693 5689 5684 5679 5674 5669 5663 5658 5652 5646 5640 5634 5627 5620
5702 5704 5707 5710 5712 5714 5716 5718 5719 5720 5721 5721 5721 5720 5720 5719 5718 5717 5716 5714 5713 5712 5710 5706 5703 5699 5695 5691 5687 5683 5678 5674 5669 5663 5658 5652 5647 5641 5635 5628 5622 5616 5609
5693 5696 5699 5701 5703 5705 5707 5709 5710 5711 5712 5712 5712 5711 5711 5710 5709 5708 5707 5705 5704 5702 5700 5697 5694 5690 5686 5682 5677 5673 5668 5663 5658 5653 5647 5642 5636 5630 5623 5617 5611 5604 5598
5684 5687 5689 5692 5694 5696 5698 5700 5701 5702 5702 5702 5702 5702 5702 5701 5701 5699 5697 5696 5694 5692 5690 5688 5684 5680 5676 5672 5668 5663 5658 5653 5648 5642 5637 5631 5625 5619 5612 5606 5600 5593 5587
5674 5677 5680 5683 5685 5687 5689 5691 5692 5692 5693 5693 5693 5693 5693 5692 5691 5690 5688 5687 5685 5683 5680 5678 5675 5671 5667 5663 5658 5653 5648 5643 5637 5632 5626 5620 5614 5608 5601 5595 5589 5583 5577
5664 5668 5671 5673 5676 5678 5680 5681 5682 5683 5684 5684 5684 5684 5684 5683 5683 5681 5680 5678 5676 5673 5671 5668 5665 5661 5657 5653 5649 5644 5639 5633 5627 5621 5615 5610 5603 5597 5591 5585 5579 5573 5568
5655 5658 5661 5664 5666 5668 5670 5672 5673 5674 5675 5675 5675 5675 5675 5675 5674 5672 5671 5669 5666 5664 5661 5658 5655 5652 5648 5643 5639 5635 5631 5624 5618 5611 5605 5599 5593 5587 5581 5575 5570 5564 5558
5646 5649 5651 5654 5657 5659 5661 5663 5664 5665 5665 5666 5666 5667 5667 5666 5665 5664 5662 5660 5658 5655 5652 5649 5646 5643 5639 5635 5631 5626 5621 5615 5609 5602 5596 5590 5583 5578 5572 5566 5560 5554 5549
5636 5639 5642 5645 5648 5650 5652 5653 5655 5656 5656 5657 5657 5658 5658 5658 5656 5655 5653 5651 5649 5646 5643 5640 5637 5633 5630 5625 5621 5616 5611 5606 5600 5594 5587 5581 5574 5569 5563 5557 5551 5546 5541
5627 5630 5632 5635 5638 5640 5643 5644 5645 5646 5647 5647 5648 5649 5649 5649 5648 5646 5645 5642 5640 5637 5634 5631 5628 5624 5621 5617 5612 5607 5601 5595 5589 5583 5577 5572 5566 5560 5555 5549 5543 5538 5533
5617 5620 5623 5626 5628 5631 5633 5635 5636 5637 5638 5638 5639 5639 5640 5640 5639 5638 5636 5634 5631 5628 5625 5623 5619 5616 5611 5606 5602 5597 5591 5586 5581 5574 5568 5563 5558 5552 5547 5541 5536 5531 5526
5608 5611 5613 5616 5619 5621 5623 5625 5627 5628 5629 5630 5630 5631 5631 5631 5630 5629 5628 5626 5623 5620 5617 5614 5610 5606 5602 5597 5592 5587 5582 5577 5572 5567 5560 5555 5550 5545 5540 5535 5530 5525 5520
5599 5601 5604 5607 5609 5612 5614 5616 5618 5619 5621 5621 5622 5622 5622 5622 5621 5619 5618 5617 5615 5612 5609 5606 5602 5598 5593 5588 5582 5577 5573 5568 5563 5558 5552 5547 5542 5537 5534 5530 5524 5519 5515